Regional Weather Roundup
Issued by NWS

Home | Current Version | Previous Version | Graphics & Text | Print | Product List | Glossary On
Versions: 1 2 3 4 5 6 7 8 9 10 11 12 13 14 15 16 17 18 19 20 21 22 23 24 25 26 27 28 29 30 31 32 33 34 35 36 37 38 39 40 41 42 43 44 45 46 47 48 49 50
000
ASUS43 KIND 311459
RWRIN

WEATHER ROUNDUP FOR INDIANA
NATIONAL WEATHER SERVICE INDIANAPOLIS IN
1100 AM EDT FRI OCT 31 2014

NOTE: "FAIR" INDICATES FEW OR NO CLOUDS BELOW 12,000 FEET WITH NO
SIGNIFICANT WEATHER AND/OR OBSTRUCTIONS TO VISIBILITY.

* - STATION DOES NOT REPORT WEATHER SUCH AS PRECIPITATION OR FOG.

+ - STATION NOT QUALITY CONTROLLED BY THE NATIONAL WEATHER SERVICE.
    USE DATA WITH CAUTION...ESPECIALLY DEWPOINT AND RELATIVE
    HUMIDITY OBSERVATIONS.

INZ001>003-010>013-019-020-311600-
NORTHWEST INDIANA

CITY           SKY/WX    TMP DP  RH WIND       PRES   REMARKS
GARY /AIRPORT/ LGT RAIN  39  34  81 NW25G44   30.08S
VALPARAISO     NOT AVBL

$$

LMZ046-743>745-311600-
SOUTHERN LAKE MICHIGAN

STATION/POSITION TIME  TEMP WIND        PRES
                       AIR  DIR/SP/G
                 (UTC) (F)  (DEG/KT/KT) (MB)
MICHIGAN CITY    1400   40  340/ 29/ 36   N/A

$$

INZ004-005-014>016-021>024-311600-
NORTH CENTRAL INDIANA

CITY           SKY/WX    TMP DP  RH WIND       PRES   REMARKS
GOSHEN         CLOUDY    40  36  86 NW12      29.95F
PERU/GRISSOM   LGT RAIN  39  39 100 NW18      29.99F
SOUTH BEND     LGT RAIN  39  35  86 NW14      29.98F FOG

$$

INZ006>009-017-018-025>027-311600-
NORTHEAST INDIANA

CITY           SKY/WX    TMP DP  RH WIND       PRES   REMARKS
ANGOLA *+        N/A     39  36  87 NW5       29.93S
FORT WAYNE     LGT RAIN  40  36  86 NW12      29.95F

$$

INZ028-029-035-036-043>045-051>053-311600-
WEST CENTRAL INDIANA

CITY           SKY/WX    TMP DP  RH WIND       PRES   REMARKS
GREENCASTLE +  LGT RAIN  37  34  87 N15       30.05S
LAFAYETTE      CLOUDY    39  32  76 NW15G31   30.06S
TERRE HAUTE    LGT RAIN  41  37  86 NW20G26   30.08S

$$

INZ030>032-037>040-046>048-054>057-064-065-311600-
CENTRAL INDIANA

CITY           SKY/WX    TMP DP  RH WIND       PRES   REMARKS
ANDERSON       LGT RAIN  39  39 100 NW12G17   29.99R
COLUMBUS       CLOUDY    45  41  87 NW7       29.99F
INDIANAPOLIS   LGT RAIN  39  35  86 NW17G30   30.01R FOG
-EAGLE CREEK   LGT RAIN  39  36  89 NW10G23   30.01S
KOKOMO *+      CLOUDY    39  34  81 NW15      30.01S
MT COMFORT *+  CLOUDY    41  39  93 NW23      30.00R
SHELBYVILLE    LGT RAIN  45  41  86 NW14G20   29.97F FOG

$$

INZ033-034-041-042-049-050-058-059-311600-
EAST CENTRAL INDIANA

CITY           SKY/WX    TMP DP  RH WIND       PRES   REMARKS
MUNCIE         LGT RAIN  41  37  86 NW14G24   29.97R

$$

INZ060-061-067>069-081>083-085>088-311600-
SOUTHWEST INDIANA

CITY           SKY/WX    TMP DP  RH WIND       PRES   REMARKS
EVANSVILLE     CLOUDY    48  41  76 N10G20    30.08S
HUNTINGBURG *+ CLOUDY    46  39  76 N14G22    30.06S

$$

INZ062-063-066-070>080-084-089>092-311600-
SOUTH CENTRAL AND SOUTHEAST INDIANA

CITY           SKY/WX    TMP DP  RH WIND       PRES   REMARKS
BLOOMINGTON    LGT RAIN  40  38  93 N13G23    30.03R FOG
SEYMOUR +      LGT RAIN  46  43  87 NW7       30.00F

$$




USA.gov is the U.S. government's official web portal to all federal, state and local government web resources and services.